Theta_e
324 325 325 333 335 327 326 328 323 323 326 323 322 322 329 337 323 318 346 357 333 332 346 345 354 361 358 358 353 348 348 348 349 352 353 354 353 350 351 350 351 353 353 354 356 354 352 353 355 356 357 357 357 357 357 357 357 357 355 355 352 350 348 346 346 345 341 338 337 337 337 336 335 336 336 335 337 337 336 336 335 334 335 334 333 332 334
324 323 322 329 329 327 327 327 327 326 325 324 323 324 332 335 326 328 348 352 340 337 342 342 346 348 349 351 348 345 347 349 351 353 353 353 351 350 350 350 351 351 351 352 354 354 352 352 354 356 356 357 357 356 357 357 356 356 355 354 352 350 348 346 346 343 339 337 337 336 337 335 334 336 336 336 337 337 337 337 336 335 335 335 333 334 336
320 321 324 326 323 324 323 321 329 329 324 325 322 322 331 332 328 333 342 343 341 339 342 346 345 344 347 350 349 347 347 350 351 351 352 352 350 349 349 349 350 351 352 352 355 356 353 350 353 355 355 356 356 356 356 356 356 356 354 354 352 350 348 346 344 342 338 337 336 337 337 336 335 336 336 336 337 338 337 337 337 336 335 334 334 335 337
319 322 323 322 322 323 319 317 324 325 322 325 323 326 336 333 328 334 337 332 335 340 345 346 346 349 349 349 350 348 346 349 350 350 351 351 350 350 350 350 352 352 353 355 356 355 350 348 351 353 354 355 355 356 356 355 355 355 353 353 351 350 349 346 343 341 338 337 337 337 337 336 337 337 335 335 338 338 337 338 337 336 335 333 334 336 338
319 323 322 322 321 317 316 320 322 321 326 328 325 332 345 341 333 334 331 328 336 347 347 343 347 351 348 347 347 346 346 349 349 350 350 349 349 350 350 351 352 352 353 353 351 349 346 347 350 351 353 354 354 355 355 355 355 354 353 352 350 349 348 346 344 341 339 338 338 337 336 336 338 338 335 336 337 335 337 339 338 337 336 334 335 337 338
315 322 324 323 318 315 325 338 335 326 326 325 327 338 348 345 343 344 340 338 350 355 349 345 348 349 348 347 341 339 345 347 346 349 351 350 350 351 352 354 353 353 354 350 345 344 345 347 348 350 352 353 354 355 355 354 354 353 352 351 349 348 347 346 344 342 340 340 339 338 336 336 338 339 339 337 332 330 335 340 338 338 337 336 336 337 338
321 326 323 318 318 325 339 346 339 331 327 329 339 347 348 345 347 354 357 353 354 358 357 351 348 346 352 354 348 348 353 350 347 349 351 354 357 357 358 359 357 357 358 352 344 343 346 346 347 349 350 351 353 353 353 354 353 353 352 350 348 348 347 346 345 343 341 339 338 339 337 334 336 339 338 334 331 333 338 339 339 339 337 336 336 336 337
325 323 317 317 326 337 342 341 341 340 335 336 342 339 339 343 343 346 357 359 354 355 356 353 350 349 352 354 350 348 352 352 351 352 354 357 360 361 362 363 362 357 354 350 345 345 346 347 347 349 350 351 352 352 352 353 352 351 351 349 348 347 347 346 345 343 341 339 338 338 337 334 336 337 333 330 331 337 340 340 339 340 338 337 336 336 336
331 326 319 322 328 332 337 339 341 341 338 340 345 339 336 341 341 340 350 359 351 347 348 349 349 350 351 355 353 346 344 346 349 351 352 353 357 362 360 356 354 350 346 345 345 345 346 346 347 349 350 351 352 352 351 351 351 350 349 348 347 347 346 346 344 343 341 339 338 338 338 337 336 335 333 332 333 336 338 338 338 339 338 338 337 337 336
338 334 327 328 327 328 340 347 341 337 334 336 344 345 338 339 341 339 345 351 347 344 343 343 347 353 357 362 359 347 341 344 347 347 346 347 351 354 350 346 346 345 345 345 345 345 346 346 347 348 349 351 352 351 350 349 348 348 347 347 346 346 346 345 344 342 340 339 338 338 337 336 335 334 333 333 332 332 334 336 337 338 338 337 337 337 337
337 333 330 334 332 332 346 354 342 335 335 335 338 339 335 339 344 341 341 344 343 342 342 341 345 356 360 357 352 346 342 343 347 350 352 355 356 348 342 341 343 344 346 346 345 346 346 346 346 346 348 350 351 350 348 347 345 345 344 344 344 345 345 344 343 342 340 338 338 337 335 334 334 333 330 327 327 330 334 337 338 338 337 336 336 336 336
341 339 337 337 335 336 344 346 338 333 334 333 330 329 333 341 344 340 340 342 341 342 344 342 344 350 352 347 343 341 339 340 345 353 360 369 372 358 345 342 342 344 347 347 346 347 347 347 347 347 347 349 348 347 345 344 343 343 342 342 343 343 344 343 341 340 339 337 336 335 334 332 331 331 328 326 328 333 336 337 337 337 337 336 336 336 335
341 344 339 332 335 341 340 337 334 333 334 334 329 330 336 342 342 340 339 338 338 339 340 340 341 344 343 340 339 338 339 341 344 348 351 356 359 353 346 345 345 346 347 346 346 346 346 347 347 345 347 347 345 344 343 342 342 342 341 342 342 342 343 341 340 339 338 337 335 334 332 331 330 330 329 330 333 336 337 337 336 336 336 335 334 334 334
338 344 344 337 338 341 334 331 334 336 341 343 338 335 339 340 340 339 338 336 338 338 338 339 340 340 338 337 338 338 339 342 344 345 349 352 351 347 344 344 345 346 345 345 344 344 344 346 346 346 346 345 343 342 342 341 341 341 340 341 341 341 341 339 338 338 337 336 335 333 331 329 328 329 329 331 335 337 338 338 336 335 335 334 333 333 333
339 345 349 342 339 336 330 335 346 347 344 344 340 338 338 337 337 336 334 336 337 337 337 339 339 339 338 338 338 337 338 340 340 342 346 349 349 346 344 342 342 343 343 342 342 343 344 345 345 345 345 342 341 341 339 339 340 340 339 340 340 340 339 338 337 337 336 334 332 330 329 327 326 328 331 333 336 338 337 337 335 334 334 334 332 332 331
341 344 347 342 339 335 330 336 347 344 338 339 339 336 334 333 332 331 331 334 335 334 335 336 336 337 339 339 339 338 338 339 340 342 346 348 348 346 342 340 340 341 341 340 340 342 342 343 344 344 344 342 339 338 338 338 339 339 339 339 339 338 338 336 336 335 333 331 329 329 329 330 330 332 334 335 336 336 336 334 333 333 333 332 331 330 330
337 339 341 339 338 336 331 331 336 335 334 336 334 332 332 332 331 330 330 331 332 331 332 332 333 335 337 338 339 338 337 340 342 344 344 344 344 344 342 340 340 340 340 339 340 340 341 342 343 343 343 342 339 337 338 338 338 338 337 337 338 337 336 335 334 333 332 331 331 332 334 335 335 335 335 335 335 335 334 333 333 334 333 332 331 329 327
336 336 338 336 335 335 333 331 331 331 332 332 330 329 331 331 330 329 330 330 330 330 331 332 333 334 336 339 340 340 340 342 344 348 349 342 337 338 341 341 340 340 340 339 339 339 339 341 342 342 342 342 340 338 338 338 338 337 336 336 336 336 335 335 334 333 333 333 334 335 336 336 336 335 335 335 334 334 333 333 333 334 332 330 329 327 326
342 342 342 337 333 333 333 332 331 331 331 332 332 332 331 331 329 329 330 330 329 329 331 333 334 334 337 343 347 346 346 345 345 351 357 348 337 335 339 341 340 339 340 338 336 336 337 339 341 341 341 341 340 338 337 337 337 336 336 335 335 335 335 334 334 335 335 334 334 334 334 334 334 333 333 333 333 332 332 333 333 332 330 328 328 327 327
345 345 341 335 330 330 330 329 329 330 329 330 332 332 331 330 329 327 327 328 328 329 331 333 333 331 333 340 344 344 344 344 344 347 350 344 337 335 337 339 339 339 338 336 335 336 337 339 340 340 340 340 339 338 337 337 336 335 335 335 334 335 335 335 335 335 335 334 334 333 332 332 332 331 330 331 332 332 331 331 332 331 329 328 327 327 328
340 337 334 333 332 332 330 328 329 330 328 329 330 330 328 328 327 326 325 325 324 326 328 329 329 329 329 332 335 336 337 339 342 345 343 337 335 336 337 337 338 339 338 337 336 336 336 337 338 338 338 338 337 337 337 336 336 335 335 335 335 335 335 335 335 335 334 334 333 332 330 329 328 326 326 329 332 332 330 329 330 330 328 327 326 328 329
338 336 333 333 334 335 333 330 331 330 327 326 328 327 325 326 325 325 325 325 324 324 325 326 327 328 328 329 332 334 337 339 341 341 337 333 334 337 338 337 337 338 338 337 336 335 335 334 333 334 335 336 336 336 336 336 337 336 336 335 334 334 334 334 335 334 333 331 330 329 327 325 325 325 326 328 331 332 331 330 329 329 327 327 327 329 329
339 338 333 330 332 333 330 328 330 329 326 326 326 325 324 324 324 323 324 325 324 323 324 324 325 326 327 328 329 331 332 332 334 336 336 335 337 338 338 336 335 335 336 337 335 333 332 330 329 329 331 333 335 336 336 336 336 336 335 333 332 332 332 332 331 329 327 326 326 326 324 322 323 326 326 326 327 328 328 328 328 327 327 326 327 326 324
333 332 329 326 326 327 325 325 327 327 326 325 323 322 322 322 322 322 322 322 323 323 324 323 322 323 325 326 327 330 328 326 327 332 335 336 338 338 337 335 333 333 335 335 333 330 328 328 327 327 328 329 331 332 333 334 333 332 330 329 329 329 328 327 326 324 323 324 324 323 322 321 323 325 325 324 323 323 324 324 324 324 324 323 323 322 321
326 326 324 322 323 324 323 323 324 325 326 326 324 324 325 323 322 323 323 323 323 323 323 323 321 321 322 323 323 324 324 322 322 326 330 333 335 336 335 332 332 334 335 333 331 328 326 326 327 327 326 326 327 328 329 329 328 328 327 326 327 327 325 324 323 323 323 324 323 323 323 323 323 324 324 322 320 319 319 319 320 321 321 320 321 321 320
322 321 320 320 322 323 323 323 324 324 326 326 326 327 328 326 325 323 322 322 322 322 324 325 322 318 318 320 319 320 321 321 320 320 322 326 329 331 332 332 332 334 335 333 329 326 325 325 326 326 325 325 326 326 326 327 327 327 326 324 325 325 325 324 324 323 324 324 324 324 324 323 323 323 322 321 321 319 318 317 318 319 319 320 320 320 319
324 323 322 322 322 323 323 323 324 324 325 326 324 323 322 321 320 319 318 318 318 318 319 320 319 318 317 317 317 319 321 320 319 318 319 321 325 328 331 332 332 333 334 332 328 325 325 325 325 325 324 325 325 325 325 325 325 325 325 324 324 324 324 324 324 324 324 324 324 325 324 323 322 322 321 321 320 320 319 319 319 318 318 318 318 318 318
324 325 324 325 325 325 324 323 323 323 324 324 321 319 318 317 317 318 319 319 318 317 317 316 316 319 320 318 317 320 322 321 321 320 318 319 324 328 331 332 332 332 333 331 328 326 326 326 325 325 325 325 325 325 325 325 326 326 325 325 326 326 326 326 325 325 325 325 326 326 325 323 322 321 321 321 320 320 320 320 320 319 318 317 317 316 316
323 323 323 324 324 323 322 323 322 321 320 319 318 317 317 318 319 320 321 321 321 321 320 316 315 316 317 316 316 320 324 325 324 321 317 319 324 329 330 331 331 331 332 331 329 328 327 326 326 326 325 326 326 327 327 327 328 328 328 328 328 327 326 326 326 325 325 326 326 326 324 323 322 322 321 321 320 320 320 319 319 318 318 316 315 314 312
321 321 320 320 320 318 319 319 319 319 319 318 318 318 318 319 321 321 321 320 321 321 319 317 316 316 315 313 314 316 319 321 320 318 318 321 326 329 330 330 330 330 330 330 330 329 328 327 327 327 328 328 328 328 329 329 329 328 328 329 328 328 326 326 327 327 327 327 326 325 324 323 322 322 321 320 320 320 320 319 319 318 317 316 314 313 312
319 318 317 317 317 316 317 318 319 319 319 318 319 320 320 320 322 323 322 322 322 321 320 319 318 317 314 313 313 314 315 316 318 318 320 323 326 329 330 329 329 330 330 330 330 330 329 328 328 329 329 330 329 330 330 330 328 328 328 329 329 329 328 328 328 328 329 328 327 326 325 324 322 321 321 320 320 320 320 319 318 317 316 315 314 313 312
318 317 317 317 317 316 317 319 319 319 319 319 320 320 320 320 321 322 323 323 322 321 320 320 319 316 314 314 314 314 314 316 317 319 320 322 325 329 330 329 329 330 330 329 329 330 329 329 329 329 329 330 330 331 330 329 328 328 329 330 329 329 329 329 328 328 328 328 327 327 325 324 322 321 321 321 321 321 320 319 318 317 316 315 315 314 313
319 320 320 320 320 321 320 319 319 319 319 318 318 318 318 319 320 321 322 322 320 319 319 318 316 315 314 314 315 314 314 316 318 320 320 321 325 328 329 329 329 330 330 330 330 329 329 329 329 329 330 330 331 330 329 328 329 329 330 330 330 329 329 328 328 327 327 327 326 326 325 324 323 322 322 322 322 321 320 318 318 317 316 314 315 316 315
319 320 319 317 319 321 320 318 318 319 319 318 318 318 318 318 319 319 321 320 318 317 317 316 315 315 315 315 314 314 315 318 322 322 320 320 324 328 328 328 329 329 330 330 330 329 329 329 329 329 330 331 331 330 329 329 329 330 330 329 329 329 328 328 327 327 326 325 325 325 324 324 323 323 323 323 322 322 321 319 318 318 317 315 316 317 316
316 317 316 316 316 317 317 316 316 317 318 318 319 318 317 316 316 317 319 318 317 316 316 316 315 316 315 315 315 314 315 317 320 320 320 321 325 327 327 327 327 327 327 328 328 328 328 328 328 329 330 330 330 330 330 329 329 329 328 328 328 327 327 326 326 326 326 325 324 324 324 323 323 322 322 322 321 321 321 320 319 318 317 317 317 317 316
315 316 317 317 316 315 316 316 315 316 318 319 318 318 317 316 315 316 317 316 315 315 316 316 316 316 316 316 316 315 315 316 318 320 322 324 325 325 325 326 326 326 326 326 326 326 327 327 327 328 329 329 329 329 329 329 328 327 326 326 327 327 326 326 326 325 325 324 324 324 324 323 322 321 320 320 320 320 321 321 320 318 318 318 318 318 317
315 315 317 317 315 315 315 315 314 315 316 317 316 316 317 316 316 315 315 315 315 315 316 317 317 317 317 317 316 316 317 318 320 322 323 323 323 324 324 325 326 327 327 326 327 328 329 328 327 326 327 327 327 327 327 327 327 327 326 326 325 325 325 325 324 323 323 323 323 323 323 322 320 319 318 318 318 318 318 319 319 319 319 318 318 318 318
314 314 315 315 314 313 314 314 313 313 314 315 315 315 316 317 316 315 314 314 315 316 317 316 316 317 318 318 318 318 320 321 322 322 322 322 323 323 323 323 324 325 326 327 328 328 327 326 326 326 326 326 325 325 326 326 326 326 326 325 324 324 323 322 322 322 322 323 322 322 321 320 319 318 317 317 317 317 317 317 317 317 317 317 317 317 317
316 315 315 314 314 313 313 313 313 313 314 315 315 314 316 317 316 314 314 315 315 316 316 315 316 318 319 318 319 321 322 323 323 323 322 322 323 322 322 322 322 323 324 325 325 325 324 325 325 325 324 324 324 324 324 324 324 323 323 322 322 321 321 321 322 322 322 322 321 320 319 319 319 318 318 318 318 317 317 316 316 316 316 315 315 315 315
319 318 316 315 315 314 313 313 313 313 314 315 315 314 315 316 315 314 314 315 315 316 316 315 316 319 319 318 319 321 322 323 323 322 322 322 323 322 323 324 323 323 323 325 325 324 324 323 323 323 323 322 322 322 322 322 322 321 320 320 319 320 320 321 321 322 321 321 320 319 319 319 319 319 319 318 318 317 316 316 315 316 315 315 315 314 314
319 317 315 315 315 314 313 313 314 314 314 315 315 315 315 316 316 315 315 315 316 317 316 316 318 320 320 318 319 320 321 321 321 321 321 321 321 322 323 325 324 324 325 326 325 323 322 321 321 321 321 321 321 321 320 320 319 318 318 318 317 318 318 319 319 320 320 319 319 319 318 318 318 318 318 318 317 317 316 316 316 316 316 315 314 314 313
319 317 318 318 316 315 314 314 314 314 315 315 315 316 316 316 316 316 316 316 317 317 317 317 319 321 320 319 319 320 321 321 320 320 321 321 320 321 323 324 324 324 325 325 323 321 321 320 320 320 320 320 320 318 317 317 317 316 315 315 314 314 315 315 314 315 315 315 316 317 317 317 318 318 318 318 318 317 317 316 316 316 316 315 315 314 314
319 318 319 319 317 316 316 315 314 314 314 315 315 316 316 316 316 317 317 317 317 317 318 318 318 319 320 319 319 320 321 321 321 321 321 321 321 321 322 323 323 324 323 322 321 321 320 319 319 319 318 317 317 316 316 316 315 315 314 313 313 312 312 311 311 310 310 310 311 311 312 312 313 313 314 315 316 316 317 317 317 316 316 316 315 315 314
317 317 317 317 316 317 317 315 314 315 315 315 316 316 316 316 317 317 317 317 317 318 319 319 319 319 320 320 319 320 320 320 321 321 320 321 321 321 321 323 324 324 323 321 320 320 319 318 317 317 317 316 316 315 315 314 313 312 312 312 311 310 310 309 309 308 308 308 308 308 307 307 307 307 307 307 308 309 311 313 315 316 316 316 315 315 315
315 316 317 317 317 317 316 315 315 316 316 315 315 315 316 317 317 317 317 318 318 319 320 320 319 319 320 320 320 320 319 319 320 321 321 322 322 320 320 322 323 324 323 322 321 320 318 317 317 317 318 316 315 313 311 309 308 308 307 307 307 308 307 307 307 307 306 306 306 306 306 305 305 304 304 304 304 305 306 307 309 312 314 315 316 315 315
316 316 316 316 317 316 316 315 316 315 314 314 315 315 315 316 316 317 318 318 319 320 320 320 320 320 320 320 320 321 320 320 320 320 321 321 321 320 320 321 322 322 322 322 321 320 318 317 317 318 318 315 312 309 308 307 307 306 306 306 307 307 306 306 306 306 305 305 305 305 305 304 304 304 304 303 303 304 304 304 306 308 311 313 315 315 315
315 316 316 316 316 316 315 315 315 314 314 316 318 316 314 314 315 316 317 317 318 319 319 319 319 319 319 319 319 320 321 321 321 321 321 321 321 320 320 320 320 321 322 322 320 319 318 317 317 319 318 315 311 309 308 308 308 308 307 307 306 307 306 306 306 306 306 306 305 305 304 304 304 304 303 303 303 303 303 303 304 305 307 310 313 314 314
315 315 316 316 316 315 315 315 315 314 315 316 316 315 314 314 315 316 316 316 317 318 318 318 318 318 317 317 318 319 320 320 321 321 320 320 320 320 320 320 320 321 322 321 320 319 318 317 318 318 318 315 311 310 309 309 309 308 307 307 307 307 306 307 307 306 306 306 305 305 305 304 304 304 303 303 303 303 302 303 303 304 305 307 309 311 312
314 315 316 316 316 316 315 314 315 315 315 314 313 314 314 314 315 315 315 315 316 316 317 317 317 317 317 317 317 317 319 320 320 320 319 319 319 319 319 320 320 321 321 321 320 319 317 317 317 318 317 315 313 310 309 309 309 309 308 308 307 307 306 306 306 306 306 306 305 305 305 305 304 304 303 303 303 302 302 302 303 303 304 304 305 306 307
314 315 316 316 316 316 316 315 315 315 315 314 314 315 315 315 315 314 313 314 315 316 316 316 316 316 316 317 317 317 317 318 319 319 319 319 319 319 319 319 320 320 321 320 319 318 317 317 317 317 317 315 313 311 309 309 309 309 309 308 308 308 307 307 306 306 306 306 306 305 305 304 304 304 303 303 303 302 302 302 302 302 303 304 304 304 305
314 314 315 316 316 317 317 316 316 315 315 315 315 315 315 315 314 313 312 313 315 316 317 316 315 314 314 315 315 315 316 317 317 318 318 318 318 318 318 318 318 319 320 320 319 319 317 316 316 316 316 315 313 312 311 310 310 309 309 309 309 308 308 308 307 307 307 306 306 306 305 305 305 304 304 303 303 302 302 302 302 302 303 303 303 303 304
313 313 313 314 315 315 314 313 313 313 313 313 314 314 313 313 313 313 313 313 314 315 315 316 316 315 314 313 314 313 314 315 316 317 317 317 317 317 317 317 318 318 318 319 319 319 318 318 317 316 316 315 314 313 312 312 311 310 310 310 310 309 309 308 308 308 307 306 306 306 306 306 306 306 305 304 303 303 302 302 302 301 302 302 303 303 304
Wind_Speed
16 16 14 11 8 6 7 8 9 10 11 13 14 12 10 9 8 9 8 9 11 10 10 12 12 11 12 12 11 9 6 5 6 7 9 10 10 10 11 11 11 11 12 12 12 13 16 19 21 22 24 25 26 27 28 28 29 31 32 34 35 35 36 37 39 39 33 27 27 31 34 34 33 34 35 33 30 29 29 28 27 26 27 26 25 25 23
15 16 13 11 11 9 7 7 8 9 10 13 14 13 12 13 12 11 10 13 13 10 11 13 12 10 9 6 5 6 6 7 9 10 11 12 13 13 12 12 11 12 12 11 10 10 12 16 19 20 21 22 24 25 26 26 28 31 33 34 34 34 34 35 34 27 15 16 22 31 38 39 39 38 35 32 30 30 30 30 28 27 27 26 25 25 23
11 12 11 9 11 12 12 12 10 8 7 8 9 8 6 8 10 8 8 10 11 9 8 9 5 3 5 5 7 9 10 10 11 11 12 13 14 13 12 11 10 10 9 8 8 8 11 16 19 19 20 21 22 24 24 25 28 30 31 31 31 32 33 32 27 20 19 24 31 39 44 43 40 37 32 30 30 29 31 32 30 28 28 27 26 25 23
7 7 10 11 9 9 11 14 13 9 7 7 6 5 5 7 8 5 6 6 9 9 6 5 2 4 7 8 9 10 9 9 12 13 15 16 15 12 11 11 10 9 9 9 10 10 12 15 17 19 20 19 21 23 24 25 27 27 28 30 30 30 30 27 24 24 28 34 40 45 46 40 35 34 33 31 28 27 29 31 31 30 28 27 27 25 24
6 6 9 9 6 4 7 11 12 11 9 7 5 4 6 8 6 6 6 8 9 6 6 6 5 6 9 10 10 9 10 11 14 15 16 14 12 11 11 10 10 10 9 9 10 10 12 15 18 20 21 21 23 25 24 24 24 26 28 29 28 26 25 24 25 27 30 35 41 44 41 36 32 33 33 32 29 28 31 33 32 31 29 29 28 27 25
7 6 5 4 4 5 8 7 8 12 13 12 8 4 3 3 2 3 6 7 5 3 7 9 10 8 6 6 5 3 4 8 11 13 12 10 9 9 9 8 9 8 7 7 9 11 14 18 20 21 21 23 25 24 22 22 24 26 27 26 24 22 22 24 26 28 31 34 33 30 30 30 30 32 32 30 30 32 33 32 31 30 29 29 29 28 26
4 1 6 4 5 8 6 2 1 6 11 13 10 6 4 2 4 4 6 7 7 5 6 7 7 4 1 4 4 4 1 5 7 7 7 8 9 8 7 8 8 7 7 7 9 14 19 21 20 20 21 24 24 22 21 23 24 25 25 24 22 22 23 25 28 29 29 24 20 21 27 30 31 33 32 31 31 30 28 27 28 29 30 30 30 29 27
2 2 5 7 7 5 3 2 5 4 5 9 10 7 3 3 3 3 6 8 7 6 6 5 4 6 5 6 6 5 4 2 6 7 7 8 9 9 9 9 9 10 12 13 15 18 20 20 20 20 21 21 20 20 20 22 23 24 23 22 22 22 25 27 29 30 28 25 24 28 34 38 39 39 36 33 30 26 23 23 26 28 29 31 31 29 27
3 3 3 3 1 1 1 2 2 2 3 5 6 4 1 2 3 1 5 6 6 5 4 4 7 7 6 6 5 6 7 5 3 6 8 8 8 8 8 9 10 14 16 18 18 18 17 17 19 19 18 18 18 17 18 19 21 22 22 23 24 25 27 29 31 31 30 31 33 34 37 40 39 33 28 25 23 22 22 24 26 28 29 30 30 29 28
2 4 2 1 2 3 4 4 3 1 2 4 4 5 2 3 7 4 3 4 3 2 3 5 8 8 7 5 5 6 7 6 1 4 5 6 6 5 6 6 6 9 12 13 13 13 13 13 15 15 15 16 17 17 18 20 21 23 23 24 24 26 27 29 30 31 31 33 35 36 38 36 29 23 20 20 22 23 24 26 27 26 25 24 25 26 26
2 5 4 3 4 4 5 6 5 2 0 4 3 5 2 5 9 7 3 1 2 4 4 2 4 7 6 2 4 6 6 3 2 6 7 7 7 7 7 6 6 7 10 11 10 11 11 11 13 16 17 18 19 19 20 20 21 21 19 18 20 23 25 26 28 29 29 29 30 31 32 29 24 22 23 25 26 25 25 24 21 19 18 18 20 22 23
1 4 3 1 2 2 3 4 5 5 2 2 5 5 2 5 8 7 4 3 1 6 8 6 7 7 5 3 2 6 4 2 5 6 8 8 7 8 9 8 9 11 11 9 8 6 6 8 11 14 15 15 14 13 14 15 15 14 12 12 16 20 22 23 24 25 25 25 24 21 18 17 21 25 29 30 28 24 20 16 12 12 14 14 14 16 17
3 1 4 1 2 2 3 6 8 6 3 4 5 5 4 4 6 6 6 6 4 5 10 10 7 5 4 2 3 5 3 8 10 9 9 10 10 11 12 12 12 12 11 9 8 4 1 3 5 9 11 10 8 9 11 12 11 10 10 11 14 18 20 21 21 21 22 23 21 17 13 16 23 29 30 26 21 17 13 11 11 12 15 15 15 16 16
4 1 3 1 1 1 6 11 9 3 4 4 3 3 2 2 4 6 7 8 8 10 12 10 7 5 5 5 6 8 10 11 11 11 11 12 14 15 16 16 15 13 11 11 10 8 5 3 5 9 11 11 11 12 13 12 11 11 12 13 16 19 21 22 22 21 21 21 19 16 16 22 26 24 20 15 13 13 14 16 16 15 18 20 19 18 18
3 2 3 3 1 3 11 14 7 3 5 5 5 2 2 2 5 8 8 8 10 11 11 10 8 8 10 11 10 11 11 11 11 12 11 10 11 12 13 15 13 12 11 10 11 10 8 6 6 9 11 13 14 14 15 14 13 13 14 16 20 22 24 25 24 23 23 21 18 17 17 19 17 13 11 11 13 16 17 17 17 19 21 20 18 18 19
2 2 1 1 3 6 12 8 3 5 6 5 7 5 3 3 5 7 7 8 9 9 11 11 11 11 12 11 10 11 12 11 11 11 10 10 9 9 12 15 14 13 11 10 11 12 9 7 7 8 11 15 16 16 16 16 16 17 18 21 24 26 27 27 27 26 24 22 19 17 15 14 12 12 13 14 16 19 17 14 16 20 20 18 18 20 20
1 1 1 2 3 3 8 7 7 9 8 5 4 5 6 4 4 5 6 7 7 8 11 11 11 11 9 9 9 9 9 10 10 10 9 9 10 11 13 15 15 14 12 11 12 13 11 9 7 8 11 16 18 18 18 18 19 20 22 24 26 27 28 29 29 27 25 23 19 16 14 15 17 18 18 18 19 20 17 15 17 20 19 20 21 21 20
2 3 4 4 3 5 7 8 7 7 7 4 2 5 6 5 4 5 6 7 7 8 10 11 10 8 7 8 8 8 8 8 8 8 9 9 11 13 13 13 12 11 11 11 12 12 11 8 8 9 10 13 16 19 20 20 21 23 25 26 27 28 29 29 29 27 24 22 18 13 12 16 18 18 18 17 16 16 16 16 18 20 21 20 19 19 19
4 2 3 5 5 5 6 6 6 6 5 2 3 6 5 4 5 6 6 7 7 7 9 11 9 7 7 9 8 7 8 8 7 7 7 6 6 9 9 7 7 9 11 11 11 11 10 7 8 9 9 10 14 18 21 22 23 25 26 27 27 27 27 28 27 26 24 22 17 12 10 12 13 12 11 9 9 12 14 14 17 20 21 19 18 18 19
5 4 3 1 5 6 5 5 4 3 4 3 4 5 5 6 7 6 6 7 7 6 7 8 9 8 7 6 6 5 5 5 5 5 5 5 6 6 5 6 9 12 12 11 12 12 10 9 9 10 11 13 16 20 22 23 25 26 26 26 26 25 25 24 24 24 24 21 17 13 9 7 8 9 9 8 10 13 14 14 18 22 22 20 20 21 21
7 6 7 7 8 7 6 4 4 4 2 3 5 4 4 8 10 8 7 8 6 6 6 6 9 10 7 5 6 6 5 5 5 5 5 6 7 8 7 2 6 13 15 15 15 15 14 12 13 13 15 18 21 23 24 25 26 26 25 25 24 24 23 23 23 24 23 20 17 14 12 12 14 14 12 12 15 17 16 15 19 22 22 22 24 24 22
6 5 7 7 8 5 1 2 4 4 3 5 8 6 5 7 7 7 10 10 7 7 7 7 9 10 8 6 7 8 6 6 6 6 6 6 7 8 8 6 4 8 12 13 14 15 15 15 16 18 20 23 25 26 26 27 27 27 26 24 23 22 23 23 24 24 22 19 18 18 18 20 21 19 16 15 16 17 17 18 20 22 22 23 23 22 19
5 5 5 4 6 6 4 2 4 4 4 7 9 7 5 5 3 5 10 10 7 7 8 7 8 9 8 7 7 7 6 6 6 7 7 6 7 7 6 5 7 6 7 9 10 11 15 18 20 21 23 25 26 27 28 28 28 29 29 27 24 24 26 27 26 26 25 24 23 23 22 22 21 19 17 15 15 16 17 18 19 19 19 18 17 16 15
7 6 5 5 7 7 3 3 5 5 5 8 8 5 4 5 6 7 8 8 7 9 9 8 8 10 8 6 6 7 6 5 7 8 8 5 4 5 5 4 6 6 7 9 10 13 15 18 20 22 24 25 26 28 29 30 31 32 33 31 28 28 28 28 27 26 26 26 25 24 23 22 20 19 18 15 12 12 13 14 14 14 14 14 14 13 12
9 8 6 7 10 8 4 4 6 6 6 7 7 6 6 7 8 9 9 8 8 9 8 8 8 10 8 6 6 6 5 4 6 6 6 6 4 1 3 5 7 9 11 13 16 18 19 20 21 22 22 21 22 24 26 29 31 32 32 32 30 29 28 26 24 24 24 24 24 24 23 22 22 21 20 17 14 13 12 12 12 12 13 12 12 11 10
10 11 10 11 11 7 5 6 7 8 8 7 7 7 7 8 8 7 7 7 6 7 7 6 6 9 9 7 6 5 5 6 7 8 8 8 7 4 3 8 11 12 14 16 19 21 23 24 24 22 21 21 22 22 22 24 27 29 29 29 29 28 27 26 25 24 22 22 22 22 22 21 21 22 21 19 19 19 18 15 13 12 11 10 10 9 8
7 6 9 12 11 8 7 7 6 6 6 6 7 6 5 5 7 6 6 7 8 9 9 7 7 7 8 8 7 6 7 8 9 10 10 9 10 9 2 9 12 14 17 19 20 22 24 25 24 22 22 25 25 22 20 21 23 24 24 23 23 22 21 22 23 23 22 21 20 19 19 19 19 20 20 20 20 20 19 17 15 13 11 10 9 8 7
9 8 7 10 9 5 5 6 5 5 6 5 4 4 2 3 6 7 7 7 7 7 8 9 9 7 7 9 8 7 8 8 8 8 9 10 13 11 2 10 12 13 18 20 21 23 24 25 24 23 23 25 24 21 20 20 18 19 19 18 16 14 14 15 18 20 19 19 17 16 16 16 17 18 18 18 19 18 16 15 15 14 13 12 11 9 8
9 8 7 9 8 6 5 5 4 4 4 3 3 2 2 3 6 7 6 5 5 4 5 8 9 7 7 8 8 5 5 6 6 9 11 12 14 11 2 10 11 13 17 19 20 23 25 24 23 24 25 26 23 21 20 18 17 18 18 15 12 11 11 12 15 16 15 14 13 12 13 14 14 16 17 18 17 17 15 14 14 14 14 14 13 13 12
6 5 5 7 6 4 4 4 4 3 3 3 3 4 4 5 6 5 4 4 3 4 3 4 6 7 7 8 8 8 7 7 9 11 13 13 14 10 1 10 11 9 11 15 18 22 24 23 22 23 25 25 23 21 19 18 17 18 16 13 11 8 8 9 10 11 11 11 10 10 11 12 14 16 17 16 15 14 13 13 13 15 16 17 17 17 16
6 5 4 4 4 4 4 4 4 4 4 4 4 5 5 5 5 4 3 3 2 3 3 3 4 5 7 8 10 11 10 11 11 12 13 13 13 10 1 11 12 8 10 16 20 20 20 19 19 20 21 20 20 20 20 19 18 17 15 11 8 6 6 5 5 5 6 7 8 9 10 11 13 15 15 14 13 12 12 14 15 16 17 19 19 18 17
4 3 3 3 3 4 5 4 4 4 4 4 5 4 3 2 3 3 3 3 3 3 4 4 4 6 8 11 12 11 10 11 11 11 12 13 13 11 4 9 12 9 9 14 17 17 16 15 16 18 17 15 16 17 18 19 19 16 13 10 9 9 7 6 5 5 5 5 6 7 8 10 11 12 12 12 11 11 12 14 15 15 16 19 20 18 16
3 1 2 3 3 5 5 4 3 3 3 2 2 2 2 1 1 2 3 3 3 4 4 4 6 9 10 12 12 11 11 11 10 8 11 13 12 11 7 5 10 10 10 11 14 16 16 15 16 17 15 13 11 12 14 16 15 14 12 12 12 11 10 8 7 7 7 6 6 6 7 8 9 10 9 8 7 8 10 12 11 9 11 15 16 15 14
2 3 2 2 2 3 3 1 1 2 2 2 2 2 3 3 3 3 4 4 4 4 6 7 10 12 12 12 11 10 9 8 6 6 11 14 12 8 6 3 5 7 8 8 10 12 13 14 14 14 13 10 8 7 8 10 12 13 13 13 12 12 12 11 9 8 9 8 8 8 8 7 7 8 7 7 8 8 8 8 7 7 9 12 13 12 13
2 3 3 2 1 2 3 2 1 0 1 2 3 3 4 4 4 5 5 5 4 6 8 10 11 11 11 10 9 8 7 5 5 8 13 15 11 4 1 2 4 5 4 4 5 6 7 8 9 9 10 11 11 10 9 9 10 11 10 11 11 12 12 11 10 9 8 7 7 5 4 3 3 4 6 7 7 6 5 5 7 9 10 11 11 12 13
3 3 3 2 2 2 2 2 2 1 2 2 3 3 4 5 5 5 6 7 8 9 10 10 11 11 10 9 9 9 9 9 9 11 13 12 7 2 5 7 9 10 10 9 8 8 8 7 8 10 11 12 14 14 12 10 9 10 9 9 10 11 11 10 9 8 6 4 2 0 1 1 2 3 4 5 5 5 5 7 8 9 9 9 10 11 13
4 4 3 2 3 3 4 4 4 4 4 4 3 4 4 5 7 8 9 9 11 11 11 11 11 10 11 11 10 9 9 9 10 10 9 5 0 4 6 8 10 10 8 7 8 10 10 8 8 11 13 13 14 16 15 12 10 10 9 8 9 9 9 8 7 5 4 2 1 0 1 1 1 2 3 4 4 4 5 7 8 8 8 9 9 10 12
5 6 5 5 5 5 6 7 8 7 6 5 4 6 6 7 9 10 11 11 11 11 11 11 10 10 10 10 9 7 6 7 7 6 6 5 5 5 6 6 7 7 7 8 9 10 9 8 9 10 11 9 10 11 10 9 8 8 8 8 8 7 6 6 5 5 5 4 4 2 2 2 2 3 3 4 5 5 6 8 8 9 9 9 10 11 13
6 7 7 7 7 7 7 8 10 10 8 6 5 6 9 10 11 11 11 11 11 12 12 12 10 9 9 8 8 7 6 6 7 8 9 8 7 6 6 5 4 4 5 6 5 6 8 10 12 12 11 9 9 10 10 9 8 9 8 8 8 7 7 7 7 7 7 6 4 2 2 2 2 2 3 5 6 7 8 9 9 9 10 10 11 12 13
4 5 5 6 6 6 6 6 8 10 11 9 8 8 10 11 11 11 11 12 13 14 15 14 12 10 9 8 7 7 7 6 8 10 11 10 8 5 5 5 4 3 4 6 7 9 12 15 15 14 11 9 9 11 12 11 10 10 9 8 8 8 8 8 8 8 7 5 3 2 2 1 2 2 3 4 6 7 8 9 9 10 11 11 12 13 13
3 4 4 5 5 5 6 6 7 10 12 12 12 12 12 12 11 10 11 13 16 17 17 15 13 13 12 10 9 8 7 6 7 8 8 7 4 2 2 3 4 4 6 9 11 13 14 13 12 12 12 11 12 13 13 12 11 10 9 8 8 8 8 8 7 6 5 4 3 3 2 2 3 4 5 5 6 8 9 11 11 12 12 12 13 13 14
4 5 5 5 5 6 7 7 7 8 10 11 12 13 12 12 11 10 11 13 14 15 14 12 11 12 11 10 8 7 7 7 7 7 6 5 3 2 2 4 6 7 10 12 12 11 11 11 12 14 15 15 14 14 13 11 10 9 8 8 7 7 7 6 5 5 4 4 3 4 4 4 5 7 8 9 10 10 11 13 14 14 14 14 14 14 15
5 5 5 5 5 7 8 8 8 7 8 11 13 13 11 11 11 11 12 12 12 12 12 12 12 13 13 12 9 7 7 7 6 6 6 6 5 4 4 7 9 9 10 10 8 7 9 12 14 15 16 15 15 13 11 10 9 8 7 7 6 5 5 5 5 4 4 3 3 3 3 3 4 6 7 9 11 13 14 16 17 17 18 17 17 16 17
6 6 5 5 6 7 8 8 8 7 8 11 12 11 9 9 10 10 11 11 11 11 11 12 14 15 15 14 10 7 7 8 8 7 6 6 6 4 5 8 9 8 7 7 6 7 10 13 14 15 15 15 14 11 9 8 7 6 6 6 5 5 6 6 5 5 4 4 3 3 2 1 2 3 5 7 10 12 14 16 19 20 21 21 20 20 19
6 5 5 5 6 6 7 7 7 6 7 10 10 8 8 9 10 10 10 10 11 11 11 12 13 13 14 13 9 6 4 5 5 5 4 4 5 4 1 6 8 7 7 6 6 7 11 13 13 14 14 13 11 9 8 7 6 6 5 5 6 6 7 7 6 6 5 5 4 4 3 2 2 3 6 8 10 12 14 15 17 20 22 24 24 23 22
6 6 5 5 5 6 6 6 6 6 7 8 7 7 8 10 11 10 9 10 10 10 10 11 11 11 11 11 9 6 5 4 4 4 2 2 4 5 3 5 8 7 6 5 7 8 11 13 13 14 13 12 10 9 8 7 7 6 6 6 6 7 8 8 8 7 7 6 6 5 4 4 3 4 6 8 10 13 14 15 15 16 19 22 25 24 24
6 6 5 5 5 5 5 6 6 6 6 5 5 7 10 12 11 10 9 9 9 9 9 9 9 9 9 10 9 8 7 7 5 4 4 4 5 6 4 3 7 7 6 6 7 9 11 13 14 14 13 12 10 9 9 8 7 7 7 7 8 9 10 9 9 8 8 8 8 7 7 7 6 6 7 8 10 12 14 15 15 14 14 17 20 23 23
6 6 6 6 6 5 5 5 5 4 4 5 7 9 11 13 12 9 7 8 9 9 9 9 9 9 8 8 7 7 7 6 5 4 5 5 5 5 4 4 5 7 7 7 9 10 12 14 14 14 14 13 12 11 10 9 9 8 9 9 10 11 11 10 10 9 9 9 9 9 10 10 9 8 8 9 11 12 13 13 14 15 14 13 15 18 20
5 5 6 6 6 6 5 5 4 3 6 8 10 11 12 13 12 10 9 9 10 10 10 10 10 9 8 7 7 6 6 5 4 5 7 8 7 6 6 5 7 8 8 9 10 12 14 14 15 14 15 15 14 13 12 12 11 10 10 10 10 11 11 11 11 10 10 10 10 10 11 11 11 10 10 11 11 13 13 13 13 14 15 14 14 14 15
6 5 4 5 5 5 5 4 4 6 8 9 10 11 11 10 10 11 12 13 12 11 11 11 10 9 8 7 8 8 7 7 7 7 8 9 9 8 6 6 8 10 11 11 11 13 14 15 16 16 16 17 16 16 15 14 13 12 12 11 11 11 11 12 12 11 10 10 10 10 11 11 11 11 11 12 12 13 13 13 13 14 14 15 15 15 15
9 7 5 4 4 4 5 6 7 8 9 10 10 10 10 9 9 12 14 14 12 11 12 12 11 10 9 9 10 10 8 8 9 9 9 9 9 9 8 7 8 11 13 14 14 14 15 16 17 17 18 19 19 18 18 17 16 15 15 14 13 12 12 12 12 12 12 11 10 10 10 10 10 11 13 13 14 13 13 13 13 13 13 14 15 16 17
9 6 4 5 6 7 8 8 7 7 8 9 9 10 10 10 10 12 14 14 12 11 11 11 12 13 14 14 13 12 11 9 9 10 10 10 10 10 9 9 9 11 13 15 16 16 17 17 18 19 19 21 21 21 21 20 19 19 18 18 17 16 14 13 13 13 13 13 12 11 11 10 11 12 13 14 14 15 14 13 12 13 13 14 15 15 16
Wind_Direction
217 216 212 192 178 197 194 186 197 197 186 180 186 204 195 158 171 224 221 178 191 221 221 216 219 208 203 210 209 208 209 191 170 156 165 186 201 205 203 198 195 197 200 200 200 203 204 206 210 213 215 217 217 217 219 216 214 214 213 212 212 211 211 213 215 217 212 194 185 189 191 197 205 208 212 220 227 230 230 225 220 220 222 225 227 229 232
225 222 217 195 189 210 211 203 203 194 191 191 197 208 193 177 204 219 185 181 204 217 212 216 221 209 200 195 173 173 185 184 176 172 182 197 204 205 204 201 199 202 203 200 198 198 200 204 208 210 212 214 215 216 217 215 214 214 213 213 212 211 213 216 217 216 195 163 179 192 192 197 205 208 212 219 223 228 232 231 227 223 224 227 228 231 235
238 230 221 205 199 211 222 228 220 192 183 193 210 231 205 189 221 224 168 181 220 235 217 216 222 173 154 154 166 186 196 187 180 184 192 203 208 206 202 201 201 202 199 192 191 192 199 204 206 208 211 212 214 217 216 215 215 214 213 214 214 213 215 216 212 200 176 175 190 197 196 198 201 202 208 219 224 227 231 231 230 227 226 227 229 232 235
246 231 216 214 205 208 230 238 232 213 190 187 205 215 187 191 213 200 143 177 230 243 216 199 189 148 169 192 193 193 198 188 183 193 202 206 205 200 198 198 196 195 192 188 191 195 199 201 202 207 210 210 213 216 215 214 215 213 213 215 215 215 215 211 204 196 188 189 196 198 195 195 195 195 203 214 220 227 233 233 230 228 227 228 230 234 237
257 232 204 204 181 183 240 241 224 211 196 190 200 187 186 191 176 159 179 213 230 216 174 182 201 187 196 212 202 191 196 193 191 199 205 205 197 191 195 196 191 192 193 191 195 195 194 198 205 210 210 209 215 218 215 212 212 210 212 215 215 213 212 206 201 198 196 197 200 198 191 188 190 194 203 210 209 216 229 233 232 230 230 232 235 238 240
251 240 172 141 146 198 239 245 217 205 198 193 191 173 189 211 180 189 225 248 256 180 161 186 203 205 222 235 220 200 193 192 201 209 204 191 184 185 187 188 188 189 186 183 189 195 201 209 214 214 213 216 221 220 214 209 210 210 211 212 211 209 208 204 201 201 201 202 203 193 180 182 192 198 204 207 205 210 222 229 232 234 235 237 239 240 241
233 186 115 144 221 228 234 287 274 206 193 178 155 115 87 35 344 295 268 264 255 226 203 202 190 172 44 25 24 1 324 187 194 209 199 174 168 175 175 176 179 174 172 174 182 199 210 215 214 213 216 221 221 217 211 208 207 208 208 207 206 205 203 203 204 204 200 195 187 175 172 182 197 203 202 201 205 216 225 228 233 240 242 242 243 241 242
191 121 146 199 233 233 223 16 32 62 123 133 118 94 64 32 4 280 262 270 271 259 249 233 155 133 105 64 38 1 341 223 174 176 189 177 166 171 173 174 179 179 181 186 191 202 212 212 209 212 217 219 216 211 207 205 203 205 204 202 201 201 202 204 205 202 194 185 179 176 179 187 197 201 198 194 200 216 230 231 236 244 246 245 245 243 242
162 147 181 207 199 184 244 349 28 83 117 144 140 127 168 317 4 280 252 278 300 294 252 180 139 130 98 53 8 352 349 314 208 169 176 170 157 167 173 174 185 188 189 193 195 199 202 201 205 210 213 213 210 203 199 198 199 200 200 200 200 200 203 205 203 199 193 188 185 182 185 192 197 196 193 192 199 216 230 233 237 245 248 247 247 244 243
126 110 119 123 129 185 232 254 251 213 149 197 175 124 126 321 352 357 269 261 281 283 232 174 148 119 72 26 315 321 338 319 273 126 136 134 120 133 149 150 164 175 183 192 196 195 193 197 207 212 211 209 204 196 193 193 194 197 200 202 201 200 203 204 201 198 194 191 188 186 190 196 193 182 181 191 201 213 228 236 239 244 249 251 250 247 245
127 123 138 170 168 192 235 251 271 323 356 205 157 102 97 320 342 345 317 272 152 148 159 182 123 95 79 34 303 313 321 318 111 106 100 90 84 87 95 101 119 147 167 178 181 184 191 206 217 216 210 205 199 194 191 189 190 194 198 200 198 199 203 203 199 196 192 190 189 189 191 192 181 169 175 190 203 219 237 245 244 245 249 253 253 252 250
224 133 128 183 196 209 264 278 303 325 322 155 126 124 210 308 334 335 356 36 93 132 119 89 63 75 103 120 328 303 294 68 69 74 82 83 85 84 82 94 121 136 143 143 141 161 205 234 228 212 203 197 190 185 181 177 179 185 188 192 196 198 200 196 191 188 185 184 184 183 182 175 168 170 178 190 208 230 243 245 244 244 247 248 250 253 248
320 99 115 143 241 244 299 309 303 309 358 82 130 179 235 314 342 344 16 41 42 76 90 87 74 67 89 94 344 323 20 64 52 47 60 64 64 66 66 74 96 109 106 90 81 77 324 279 215 191 183 169 146 142 151 156 163 173 178 182 185 187 186 180 176 175 177 178 174 168 163 166 172 179 186 196 219 241 245 248 256 256 253 251 247 245 236
325 5 112 57 264 242 333 326 309 312 72 101 169 202 271 345 28 34 34 44 55 61 68 75 77 65 52 44 28 25 42 52 46 41 45 47 45 46 49 53 64 75 72 62 61 61 56 83 147 168 163 140 125 129 138 146 160 170 170 168 169 170 168 163 160 163 168 172 171 167 172 177 180 186 198 217 247 258 253 257 260 254 252 251 243 235 228
321 4 61 49 219 286 330 330 321 29 78 142 165 118 32 23 72 71 57 49 57 66 71 72 71 64 52 42 37 36 38 45 50 48 48 48 43 40 44 43 46 59 67 63 62 67 73 94 131 156 148 128 122 127 133 145 161 165 162 162 161 159 157 156 157 160 165 167 167 166 172 179 184 199 223 243 256 255 255 260 253 241 241 242 234 227 223
340 345 50 132 223 292 327 340 70 73 61 120 142 121 89 64 70 76 69 56 55 67 77 74 64 58 53 44 40 38 34 37 45 46 48 53 51 49 52 47 42 50 63 66 66 70 78 95 119 148 146 131 125 129 139 151 160 160 158 159 156 154 154 156 158 163 168 170 167 165 169 179 191 211 228 237 240 237 239 245 241 235 235 232 226 224 223
237 164 177 236 240 316 346 15 73 84 75 78 104 113 101 77 70 84 81 71 64 66 72 71 62 56 53 48 46 47 43 41 43 44 42 43 45 52 59 57 52 54 61 66 69 71 74 88 116 146 150 140 134 138 148 157 160 158 157 156 155 155 156 160 164 167 167 166 162 162 173 188 197 204 211 215 219 222 221 222 228 233 233 228 224 222 222
180 67 33 341 357 35 32 24 36 72 84 77 81 97 93 85 88 92 87 84 79 75 78 75 66 57 59 57 47 39 42 42 41 46 45 35 37 48 55 58 62 70 76 75 71 71 74 92 127 145 151 150 146 148 155 161 162 161 159 158 158 160 162 168 173 173 171 169 165 161 172 184 189 194 200 206 215 223 223 221 224 231 233 229 225 225 230
154 51 353 343 8 42 57 45 28 33 43 44 85 92 96 104 94 82 84 85 75 70 79 84 79 65 55 58 50 33 32 29 20 33 46 35 36 56 69 84 96 100 100 95 87 83 85 103 131 146 158 165 160 157 160 163 164 164 162 160 162 166 171 177 180 181 182 182 180 178 184 190 193 196 199 203 219 230 231 229 230 232 233 231 228 229 233
121 132 178 79 52 46 53 72 73 33 13 24 69 84 98 97 83 74 82 86 77 70 77 86 88 76 57 60 67 53 40 26 6 11 21 9 7 28 62 115 129 125 123 123 121 120 127 140 149 158 170 173 168 164 163 163 164 164 163 165 168 173 177 179 183 187 189 190 193 199 203 194 181 175 172 174 194 213 224 233 234 231 228 227 230 232 226
95 116 154 134 87 47 21 46 71 52 37 64 66 63 80 88 87 85 75 68 70 82 87 86 83 75 61 54 65 61 48 31 10 355 352 348 341 338 339 338 150 145 144 149 150 148 151 157 159 164 170 171 170 168 163 163 165 164 166 170 174 175 177 178 183 190 192 194 195 189 169 151 150 157 172 192 204 209 218 230 233 229 224 227 234 231 216
132 158 174 151 119 102 38 27 45 29 36 82 80 64 58 79 101 110 95 80 65 65 70 72 74 72 59 43 48 52 41 22 3 343 334 332 324 321 323 308 237 174 160 166 169 160 156 159 159 161 164 165 167 167 164 165 167 166 165 166 166 168 175 180 184 188 187 184 178 168 159 157 161 169 187 206 212 214 221 230 233 230 230 237 239 227 209
141 153 156 136 116 128 151 116 70 51 52 76 80 71 64 73 86 96 98 97 89 74 67 63 70 74 67 55 55 56 44 21 2 346 331 318 308 307 298 256 230 210 185 182 174 156 153 158 158 157 159 161 164 166 164 164 165 163 159 157 156 162 171 176 179 178 174 170 169 169 169 172 176 183 193 202 210 219 227 233 235 233 233 233 226 212 204
101 104 114 104 99 107 119 104 89 79 77 86 84 71 66 70 58 59 70 77 78 77 68 54 55 62 62 56 54 52 39 17 9 1 347 330 309 297 281 231 197 179 163 157 151 147 153 159 159 159 162 163 163 164 164 163 163 160 158 157 159 165 169 172 174 174 171 172 173 174 175 180 187 194 197 197 201 214 221 220 218 214 209 203 198 197 203
107 106 101 94 94 94 94 86 70 49 51 78 81 62 50 52 50 50 52 51 52 61 63 54 46 49 54 56 52 48 35 11 15 19 11 7 7 302 212 179 162 157 154 153 152 154 158 162 165 166 166 164 163 164 166 165 163 163 163 164 166 169 172 174 177 178 178 178 179 181 185 190 194 198 200 196 190 187 187 189 190 190 189 190 193 197 200
98 105 95 84 76 62 56 67 52 29 25 46 62 54 44 49 56 53 50 52 52 53 61 60 42 39 47 50 44 40 30 13 13 22 27 23 15 6 176 168 163 163 163 161 160 161 163 166 169 170 170 169 169 170 173 172 170 170 172 173 174 177 180 183 186 188 189 190 191 194 197 199 199 201 203 201 194 186 178 173 175 181 186 189 191 191 192
58 71 81 82 70 45 44 59 50 28 26 41 63 70 54 57 73 68 54 54 50 45 49 47 35 36 39 34 31 32 26 18 13 15 18 15 360 348 258 179 172 170 168 165 164 167 168 170 173 176 176 177 176 176 179 182 181 181 181 182 184 188 192 195 195 196 198 201 204 207 206 206 207 206 204 203 200 193 185 181 183 185 185 185 186 187 187
46 36 60 90 95 76 62 59 45 36 30 28 52 85 85 74 74 63 50 44 36 32 35 31 26 30 24 13 14 18 14 12 10 4 0 356 353 350 266 185 180 176 172 169 170 173 173 175 180 183 184 185 184 185 189 194 202 206 204 202 201 201 204 205 203 202 204 208 211 213 211 209 209 207 204 203 201 196 194 198 198 193 189 185 181 177 177
55 45 59 89 100 97 81 63 47 47 41 21 27 57 70 73 67 55 43 32 20 20 22 15 13 16 8 358 359 2 4 4 354 344 340 343 349 352 251 191 187 181 176 174 175 178 181 184 186 190 193 195 197 200 203 211 225 229 224 222 222 213 200 197 198 199 202 206 208 210 208 205 204 203 201 200 196 193 196 204 204 197 192 186 178 174 173
66 53 63 82 97 116 117 94 77 60 37 30 41 42 40 58 68 58 35 21 24 26 12 353 355 3 1 353 347 342 336 330 328 333 337 343 352 358 227 187 177 170 179 184 185 187 191 193 195 200 203 204 209 218 226 232 235 231 227 229 231 216 194 190 193 191 189 188 188 191 193 194 196 196 193 192 192 194 201 207 206 201 195 188 184 183 180
89 74 74 90 119 137 121 90 74 50 21 23 39 37 30 45 62 55 21 11 18 11 355 349 353 356 351 343 335 329 323 319 323 334 342 346 353 360 244 191 180 174 194 199 197 196 198 200 206 213 217 220 227 236 239 235 228 226 228 227 213 188 176 182 186 184 181 177 175 180 184 184 187 189 190 193 200 209 213 211 207 203 197 192 192 192 186
115 96 79 77 85 81 69 61 59 46 27 24 32 28 17 33 57 38 3 356 356 349 351 358 353 338 332 330 328 324 321 318 319 332 344 344 347 355 335 210 205 211 218 211 206 206 208 213 221 229 236 246 251 245 233 224 221 223 222 206 183 172 174 175 172 175 181 181 182 186 186 187 189 191 195 205 215 222 221 214 207 203 202 200 198 193 189
159 152 47 36 48 55 48 36 32 32 23 12 14 358 335 4 61 25 349 346 354 354 354 346 333 326 325 326 326 327 328 326 323 333 343 339 338 346 343 261 230 235 240 230 218 214 216 223 233 241 248 254 248 232 220 217 217 215 203 188 177 173 170 167 166 166 162 161 172 181 182 185 189 190 194 209 227 237 235 224 212 205 210 212 206 196 193
132 133 114 117 120 103 87 54 5 355 339 321 324 349 1 15 17 2 360 7 3 346 338 331 326 326 326 325 326 328 334 338 337 329 326 326 326 333 338 301 232 225 229 227 220 217 221 228 234 237 234 220 200 191 201 206 203 195 186 178 171 165 158 152 150 148 145 146 153 162 169 178 187 196 211 228 237 238 233 222 212 209 216 220 216 206 202
74 99 102 115 126 125 134 143 143 89 3 355 351 356 9 14 8 1 2 1 346 333 333 332 329 329 331 330 331 335 337 336 326 312 310 314 315 306 194 145 145 141 132 139 168 188 198 202 199 196 190 178 165 162 170 175 171 165 161 158 156 152 146 143 142 137 134 139 144 151 169 193 207 224 240 245 240 232 222 213 216 218 216 214 215 213 210
46 61 60 44 37 50 78 78 55 35 34 25 8 6 14 17 11 359 347 344 348 350 350 348 345 343 344 343 339 333 324 318 315 312 310 310 302 219 152 131 124 117 107 103 111 117 119 129 139 141 142 141 140 140 139 136 133 133 134 139 144 141 136 134 131 123 122 132 138 158 261 263 254 244 245 247 244 240 231 219 218 218 215 214 219 220 215
41 54 49 22 20 24 29 30 26 25 31 31 25 27 23 8 359 355 351 353 360 1 359 360 357 349 346 346 338 326 323 328 326 321 320 324 323 141 125 115 117 118 111 103 102 101 101 107 113 115 115 109 103 101 100 98 104 115 123 132 137 134 127 125 123 120 126 138 126 117 186 210 231 237 240 241 235 230 226 220 219 223 227 230 231 228 221
30 40 39 30 27 24 20 22 27 33 38 33 23 22 18 6 1 1 1 3 5 2 360 2 359 349 347 350 347 339 349 6 13 15 23 42 80 101 94 88 91 93 98 104 99 89 91 104 112 114 115 110 102 103 107 107 111 121 132 142 143 137 132 133 133 129 127 127 129 146 185 238 254 245 239 235 229 229 236 238 239 242 242 239 236 232 227
25 27 25 25 25 20 15 19 24 27 29 26 15 9 7 5 6 6 4 3 4 2 359 358 356 352 352 354 352 355 12 37 59 65 63 69 82 86 73 62 54 71 105 123 112 89 102 122 128 127 129 133 133 132 133 134 137 144 153 156 151 142 135 131 126 124 126 130 142 174 234 284 292 269 250 243 241 242 242 241 242 243 241 239 237 234 229
21 18 16 19 22 21 17 16 14 12 13 15 12 3 359 360 3 4 1 356 354 356 359 360 357 355 353 350 350 359 18 52 82 89 88 88 89 79 59 44 36 61 121 141 134 124 130 138 139 137 139 143 140 135 136 142 150 156 158 155 146 138 131 125 124 129 136 142 159 196 224 260 283 277 257 243 238 236 233 232 235 239 240 241 240 236 231
13 16 19 22 22 19 17 14 8 5 5 6 4 360 357 357 357 355 352 347 347 353 0 3 358 353 351 349 352 2 18 45 74 85 84 81 79 64 42 48 57 91 130 136 130 129 135 141 139 137 142 148 149 147 147 150 154 153 150 146 142 137 134 131 132 140 152 166 189 208 220 247 265 268 262 250 241 236 234 236 240 244 245 245 242 235 230
6 10 17 21 16 12 14 13 9 3 360 359 360 358 355 352 350 346 344 344 345 349 355 360 359 357 357 357 4 17 27 40 55 59 54 53 61 76 94 102 112 127 138 140 136 135 139 141 139 140 146 153 154 152 149 148 147 144 140 138 136 134 135 137 141 152 165 178 197 216 233 248 257 265 269 265 258 252 246 243 244 246 247 246 242 236 233
1 4 12 13 5 2 4 4 2 358 353 355 359 359 355 351 348 343 341 343 344 344 348 354 1 6 7 7 11 21 27 31 38 40 40 47 58 80 116 130 133 137 146 153 154 151 149 148 149 151 155 156 154 150 146 145 147 149 148 147 146 147 152 157 156 156 158 165 178 198 224 251 265 272 276 274 269 265 259 253 250 250 249 247 244 239 236
354 360 4 1 356 358 359 358 357 355 348 348 353 359 360 358 353 344 338 338 341 344 348 353 357 2 4 6 7 10 10 11 14 16 22 36 48 68 125 145 146 150 162 172 172 164 160 158 157 158 158 157 154 153 153 154 158 164 167 168 169 168 168 167 163 158 163 172 176 179 190 227 284 300 302 299 292 284 274 264 257 253 250 248 246 243 239
344 350 351 348 351 359 1 356 352 347 338 337 345 357 2 359 356 351 344 340 339 343 348 351 351 353 355 356 358 355 340 335 343 353 10 39 42 37 138 177 178 179 184 191 190 178 169 164 159 159 161 163 163 163 161 160 163 168 172 175 176 174 171 170 172 176 185 192 193 194 201 216 257 306 315 314 310 306 298 286 272 261 253 248 245 243 242
331 334 336 335 340 353 0 0 357 349 342 342 350 0 2 0 359 357 353 346 343 345 347 345 343 343 344 346 348 349 336 321 317 313 296 297 338 349 331 206 203 207 206 201 197 187 176 170 167 169 174 178 176 172 169 166 165 166 170 175 181 187 189 191 195 200 206 211 214 218 226 236 258 288 303 306 306 307 308 304 294 278 262 252 247 245 245
323 319 316 316 324 342 4 15 11 359 351 348 341 338 344 352 356 358 357 353 347 344 344 341 337 335 336 338 340 341 338 335 333 330 321 307 311 324 323 229 217 224 223 208 202 196 188 182 182 186 191 192 189 186 186 185 181 181 187 194 200 204 206 209 214 220 224 225 228 233 239 247 260 277 291 299 303 306 306 306 304 298 281 262 252 248 247
325 313 307 308 313 327 356 18 18 360 342 333 321 319 328 339 345 350 358 1 354 345 341 341 339 336 333 334 336 336 334 330 327 335 346 342 324 311 301 263 234 231 224 215 211 207 201 197 198 200 203 205 206 206 207 207 205 203 204 207 211 214 216 221 229 235 237 237 238 241 247 253 262 273 284 292 300 307 308 305 303 302 297 284 267 256 252
336 319 312 315 321 332 346 358 357 334 322 321 319 319 327 334 335 335 341 349 348 344 343 346 348 347 342 337 335 334 328 317 301 300 314 325 326 317 300 272 249 241 235 228 221 216 212 211 213 214 215 217 220 220 219 219 219 217 215 219 224 227 229 233 236 238 241 244 246 249 255 260 264 269 276 283 293 303 308 308 303 298 294 292 288 279 271
345 334 324 325 330 329 324 315 308 309 314 315 316 321 328 330 326 323 327 332 333 332 334 340 347 351 349 341 336 332 322 312 305 302 304 309 314 314 302 271 250 245 245 243 236 228 224 223 224 224 225 227 229 230 229 229 230 230 230 233 236 238 240 242 242 242 245 250 253 256 260 263 265 267 272 276 283 294 305 312 311 302 291 285 285 285 284
335 327 323 328 328 316 302 296 295 299 303 305 308 314 320 319 313 315 322 327 327 324 323 328 335 341 341 337 334 331 319 303 296 297 298 299 302 304 301 282 258 247 246 248 247 242 236 234 233 233 232 234 237 239 240 240 241 242 242 243 247 249 252 253 253 253 253 254 255 257 260 262 265 268 270 273 277 283 293 305 312 311 303 292 284 281 281
339 335 338 348 345 335 326 322 321 319 318 317 316 315 315 313 310 314 321 327 327 322 316 313 314 319 323 325 325 325 320 307 296 291 288 288 289 291 291 286 273 259 252 251 252 251 248 245 244 242 240 240 242 245 247 248 249 250 250 251 253 256 257 257 259 259 258 256 256 257 259 262 266 270 272 273 273 276 281 289 299 306 307 303 296 290 285